Flag for Pakistan Weather past 2 weeks in Karachi, Sindh, Pakistan

Now
82 °F

Passing clouds.


Feels Like: 87 °F
Forecast: 82 / 89 °F
Wind: 14 mph from Southwest

Location: Karachi Airport

Current Time: Aug 3, 2015 at 8:22:11 PM

Latest Report: Aug 3, 2015 at 7:55 PM


Visibility: 4 mi

Pressure: 29.68 "Hg

Humidity: 70%

Dew point: 72 °F

Location of KarachiLocation

Historic Weather in Karachi — Graph

°F

Karachi temperature yesterday

Maximum temperature yesterday: 90 °F (at 11:55 AM)
Minimum temperature yesterday: 82 °F (at 12:25 AM)
Average temperature yesterday: 85 °F

Past Weeks' High & Low Weather Summary

 TemperatureHumidityPressure
High97 °F (Jul 21, 1:25 PM)94% (Jul 23, 6:25 PM)29.71 "Hg (Jul 23, 6:25 PM)
Low77 °F (Jul 21, 11:55 PM)22% (Jul 27, 10:30 AM)29.45 "Hg (Jul 19, 6:25 PM)
Average86 °F71%29.56 "Hg
* Reported Jul 19 6:25 PM — Aug 3 6:55 PM, Karachi, Weather by CustomWeather, © 2015

Note: Actual official high and low records may vary slightly from our data, if they occured in-between our weather recording intervals... More about our weather records

Advertising

Karachi weather history for previous 24 hours

 ConditionsComfort  
Time TempWeatherWind HumidityBarometerVisibility
6:55 PM
Mon, Aug 3
84 °FScattered clouds.16 mph62%29.65 "Hg4 mi
6:25 PM84 °FScattered clouds.15 mph62%29.65 "Hg4 mi
5:55 PM86 °FPartly sunny.17 mph59%29.65 "Hg4 mi
5:25 PM86 °FPartly sunny.16 mph59%29.65 "Hg4 mi
4:55 PM88 °FScattered clouds.9 mph55%29.65 "Hg4 mi
4:25 PM88 °FBroken clouds.13 mph52%29.65 "Hg4 mi
3:25 PM88 °FBroken clouds.14 mph55%29.65 "Hg4 mi
2:25 PM88 °FBroken clouds.10 mph55%29.68 "Hg4 mi
1:55 PM88 °FBroken clouds.12 mph55%29.68 "Hg4 mi
1:25 PM88 °FBroken clouds.14 mph55%29.68 "Hg4 mi
12:55 PM88 °FBroken clouds.9 mph55%29.68 "Hg4 mi
12:25 PM88 °FBroken clouds.12 mph55%29.68 "Hg4 mi
11:55 AM86 °FBroken clouds.12 mph59%29.68 "Hg4 mi
11:25 AM88 °FBroken clouds.16 mph55%29.68 "Hg4 mi
10:55 AM86 °FScattered clouds.16 mph59%29.71 "Hg4 mi
10:25 AM84 °FScattered clouds.13 mph62%29.71 "Hg4 mi
9:55 AM84 °FScattered clouds.14 mph66%29.71 "Hg4 mi
8:55 AM82 °FPartly sunny.16 mph70%29.68 "Hg4 mi
7:55 AM82 °FPartly sunny.13 mph70%29.68 "Hg4 mi
7:25 AM82 °FPartly sunny.12 mph70%29.68 "Hg4 mi
6:55 AM82 °FPartly sunny.14 mph70%29.68 "Hg4 mi
6:25 AM82 °FPartly sunny.12 mph74%29.65 "Hg4 mi
5:55 AM82 °FPassing clouds.14 mph74%29.65 "Hg4 mi
5:25 AM82 °FPassing clouds.12 mph74%29.65 "Hg4 mi
4:55 AM82 °FPassing clouds.12 mph74%29.65 "Hg4 mi
4:25 AM82 °FPassing clouds.14 mph70%29.65 "Hg4 mi
3:55 AM82 °FPassing clouds.17 mph70%29.65 "Hg4 mi
3:25 AM82 °FPassing clouds.12 mph70%29.65 "Hg4 mi
2:55 AM82 °FPassing clouds.14 mph70%29.68 "Hg4 mi
2:25 AM82 °FPassing clouds.15 mph70%29.68 "Hg4 mi
1:55 AM82 °FPassing clouds.12 mph70%29.68 "Hg4 mi
12:25 AM82 °FPassing clouds.9 mph74%29.68 "Hg4 mi
11:55 PM
Sun, Aug 2
82 °FPassing clouds.12 mph74%29.71 "Hg4 mi
11:25 PM82 °FPassing clouds.14 mph74%29.71 "Hg4 mi
10:55 PM82 °FPassing clouds.12 mph74%29.71 "Hg4 mi
10:25 PM82 °FPassing clouds.14 mph74%29.71 "Hg4 mi
9:55 PM82 °FPassing clouds.16 mph74%29.71 "Hg4 mi
9:25 PM82 °FPassing clouds.12 mph74%29.68 "Hg4 mi
8:55 PM82 °FPassing clouds.14 mph74%29.68 "Hg4 mi
8:25 PM82 °FPassing clouds.14 mph74%29.68 "Hg4 mi
Weather by CustomWeather, © 2015

See weather overviewHow to use our weather pages